This demonstration page uses our WeatherBlox Daily Observations layout. Learn more.

Left ArrowRight Arrow

38.88101, -77.10428

Hourly Observations for May 22, 2021

Temp ( °F °C ) Dew Point ( °F °C ) Humidity (%) Winds ( mph kmh ) Pressure ( in mb ) Visibility ( mi km ) Precip ( " mm )
12:52 am 00:52 Mostly Cloudy 67 19.4 52 11.1 59 59 SSW 6 9 30.40 1029 10 16 N/A
1:52 am 01:52 Mostly Cloudy 66 18.9 52 11.1 61 61 SSW 5 7 30.38 1029 10 16 N/A
2:52 am 02:52 Mostly Cloudy 66 18.9 50 10 56 56 S 6 9 30.36 1028 10 16 N/A
3:52 am 03:52 Mostly Cloudy 65 18.3 50 10 59 59 SSW 5 7 30.34 1028 10 16 N/A
4:52 am 04:52 Partly Cloudy 64 17.8 50 10 60 60 SSW 6 9 30.34 1027 10 16 N/A
5:52 am 05:52 Mostly Cloudy 63 17.2 51 10.6 65 65 SSW 6 9 30.34 1027 10 16 N/A
6:52 am 06:52 Mostly Cloudy 65 18.3 52 11.1 63 63 SSW 6 9 30.34 1027 10 16 N/A
7:52 am 07:52 Mostly Cloudy 68 20 53 11.7 59 59 SW 5 7 30.34 1027 10 16 N/A
8:52 am 08:52 Mostly Cloudy 70 21.1 57 13.9 64 64 SSE 5 7 30.34 1027 10 16 N/A
9:52 am 09:52 Mostly Cloudy 73 22.8 58 14.4 59 59 S 5 7 30.32 1027 10 16 N/A
10:52 am 10:52 Mostly Cloudy 76 24.4 58 14.4 54 54 SE 3 6 30.31 1026 10 16 N/A
11:52 am 11:52 Mostly Cloudy 87 30.6 58 14.4 37 37 N 10 17 30.29 1026 10 16 N/A
12:52 pm 12:52 Mostly Cloudy 88 31.1 57 13.9 35 35 NW 10 17 30.27 1025 10 16 N/A
1:52 pm 13:52 Mostly Cloudy 88 31.1 56 13.3 34 34 NNW 12 19 30.24 1024 10 16 N/A
2:52 pm 14:52 Mostly Cloudy 90 32.2 55 12.8 31 31 NNW 10 17 30.22 1023 10 16 N/A
3:52 pm 15:52 Cloudy 89 31.7 56 13.3 33 33 W 15 24 30.19 1023 10 16 N/A
4:52 pm 16:52 Cloudy 89 31.7 57 13.9 34 34 N 14 22 30.17 1022 10 16 N/A
5:52 pm 17:52 Cloudy 87 30.6 58 14.4 37 37 NNW 12 19 30.16 1021 10 16 N/A
6:52 pm 18:52 Cloudy 86 30 57 13.9 37 37 WNW 9 15 30.15 1021 10 16 N/A
7:52 pm 19:52 Cloudy 85 29.4 57 13.9 39 39 WNW 9 15 30.15 1021 10 16 N/A
8:52 pm 20:52 Cloudy 83 28.3 56 13.3 40 40 NW 10 17 30.14 1021 10 16 N/A
9:52 pm 21:52 Cloudy 82 27.8 56 13.3 41 41 WNW 6 9 30.15 1021 10 16 N/A
10:52 pm 22:52 Cloudy 82 27.8 53 11.7 37 37 NW 12 19 30.14 1021 10 16 N/A
11:52 pm 23:52 Cloudy 80 26.7 52 11.1 38 38 W 8 13 30.13 1020 10 16 N/A

Powered by AerisWeather